Date String (YYYY-MM-DD hh:mm:ss) UTC,Instrument flags,absolute air pressure of the measurement (hPa),sample flow rate (lpm),inlet stack bypass flow (lpm),air temperature of the measurement (°C),ambient temperature measured by the external sensor (°C),aerosol sample conditioner tube jacket temperature (°C),OPC LED temperature (°C),internal box temperature (°C),relative humidity of the measurement (%),span deviation,mass concentration of particles derived from Lorenz-Mie calculation of OPC scattering (μg/m³),mass concentration of particles derived from Lorenz-Mie calculation of OPC scattering (μg/m³),mass concentration of particles derived from Lorenz-Mie calculation of OPC scattering (μg/m³)
DateTimeUTC,F1_M11,P_M11,Q1_M11,Q2_M11,T1_M11,T2_M11,T3_M11,T4_M11,T5_M11,U1_M11,ZSPAN_M11,X0_M11,X2_M11,X1_M11
2024-04-20 08:00:00,SystemResetWarning,0836.3,5.01,000.00,019.2,018.7,000.0,027.7,021.0,022.5,0000.0,0009.00,0005.93,0005.42
2024-04-20 08:01:00,SystemResetWarning,0836.3,5.00,000.00,019.2,018.7,000.0,027.7,021.0,022.5,0000.0,0009.07,0005.96,0005.42
2024-04-20 08:02:00,SystemResetWarning,0836.3,5.01,000.00,019.2,018.7,000.0,027.7,021.0,022.5,0000.0,0009.08,0005.96,0005.43
2024-04-20 08:03:00,SystemResetWarning,0836.2,4.99,000.00,019.2,018.7,000.0,027.7,021.0,022.5,0000.0,0009.08,0005.97,0005.44
2024-04-20 08:04:00,SystemResetWarning,0836.3,4.99,000.00,019.2,018.7,000.0,027.7,021.0,022.5,0000.0,0009.16,0006.00,0005.45
2024-04-20 08:05:00,SystemResetWarning,0836.3,5.00,000.00,019.2,018.7,000.0,027.7,021.0,022.5,0000.0,0009.19,0006.04,0005.49
2024-04-20 08:06:00,SystemResetWarning,0836.3,5.01,000.00,019.2,018.7,000.0,027.7,021.0,022.5,0000.0,0009.27,0006.10,0005.52
2024-04-20 08:07:00,SystemResetWarning,0836.3,5.01,000.00,019.2,018.7,000.0,027.7,020.9,022.5,0000.0,0009.38,0006.16,0005.55
2024-04-20 08:08:00,SystemResetWarning,0836.2,5.00,000.00,019.2,018.6,000.0,027.7,021.0,022.6,0000.1,0009.36,0006.18,0005.58
2024-04-20 08:09:00,SystemResetWarning,0836.3,4.99,000.00,019.2,018.6,000.0,027.7,021.0,022.6,0000.4,0009.37,0006.20,0005.59
2024-04-20 08:10:00,SystemResetWarning,0836.3,5.00,000.00,019.2,018.6,000.0,027.7,021.0,022.6,0000.3,0009.28,0006.21,0005.62
2024-04-20 08:11:00,SystemResetWarning,0836.3,5.00,000.00,019.2,018.6,000.0,027.7,020.9,022.6,-000.1,0009.37,0006.21,0005.63
2024-04-20 08:12:00,SystemResetWarning,0836.3,5.01,000.00,019.2,018.6,000.0,027.7,020.9,022.6,-000.0,0009.45,0006.24,0005.64
2024-04-20 08:13:00,SystemResetWarning,0836.3,5.01,000.00,019.2,018.6,000.0,027.7,020.9,022.5,-000.1,0010.07,0006.27,0005.65
2024-04-20 08:14:00,SystemResetWarning,0836.3,5.00,000.00,019.2,018.6,000.0,027.7,020.9,022.6,0000.1,0010.14,0006.27,0005.65
2024-04-20 08:15:00,SystemResetWarning,0836.3,5.00,000.00,019.2,018.6,000.0,027.7,020.9,022.5,0000.5,0010.11,0006.28,0005.66
2024-04-20 08:16:00,SystemResetWarning,0836.3,5.00,000.00,019.2,018.6,000.0,027.7,020.9,022.6,0000.5,0010.13,0006.27,0005.65
2024-04-20 08:17:00,SystemResetWarning,0836.3,4.99,000.00,019.2,018.6,000.0,027.7,020.9,022.6,0000.7,0010.21,0006.24,0005.63
2024-04-20 08:18:00,SystemResetWarning,0836.2,4.99,000.00,019.2,018.6,000.0,027.7,020.9,022.6,0000.3,0010.17,0006.20,0005.62
2024-04-20 08:19:00,SystemResetWarning,0836.3,4.99,000.00,019.2,018.6,000.0,027.7,020.9,022.6,0000.2,0010.20,0006.21,0005.62
2024-04-20 08:20:00,SystemResetWarning,0836.3,5.00,000.00,019.2,018.6,000.0,027.7,020.9,022.6,-000.1,0010.24,0006.20,0005.62
2024-04-20 08:21:00,SystemResetWarning,0836.3,5.00,000.00,019.2,018.6,000.0,027.7,020.9,022.6,-000.1,0010.17,0006.23,0005.62
2024-04-20 08:22:00,SystemResetWarning,0836.4,5.00,000.00,019.2,018.6,000.0,027.7,020.9,022.6,0000.2,0010.17,0006.27,0005.63
2024-04-20 08:23:00,SystemResetWarning,0836.3,5.00,000.00,019.2,018.6,000.0,027.7,020.9,022.6,0000.4,0010.97,0006.27,0005.66
2024-04-20 08:24:00,SystemResetWarning,0836.3,5.00,000.00,019.2,018.6,000.0,027.7,020.9,022.6,0000.2,0010.32,0006.23,0005.66
2024-04-20 08:25:00,SystemResetWarning,0836.3,5.00,000.00,019.1,018.6,000.0,027.7,020.9,022.6,0000.8,0010.32,0006.24,0005.67
2024-04-20 08:26:00,SystemResetWarning,0836.2,5.00,000.00,019.1,018.6,000.0,027.7,020.9,022.6,0000.1,0010.39,0006.26,0005.70
2024-04-20 08:27:00,SystemResetWarning,0836.3,5.00,000.00,019.1,018.6,000.0,027.7,020.9,022.7,0000.0,0010.49,0006.30,0005.70
2024-04-20 08:28:00,SystemResetWarning,0836.3,5.00,000.00,019.1,018.6,000.0,027.7,020.9,022.7,0000.0,0010.43,0006.34,0005.73
2024-04-20 08:29:00,SystemResetWarning,0836.2,5.00,000.00,019.1,018.6,000.0,027.7,020.9,022.7,0000.0,0010.47,0006.38,0005.75
2024-04-20 08:30:00,SystemResetWarning,0836.2,5.01,000.00,019.1,018.6,000.0,027.7,020.9,022.7,0000.0,0010.46,0006.38,0005.76
2024-04-20 08:31:00,SystemResetWarning,0836.2,5.00,000.00,019.1,018.6,000.0,027.7,020.9,022.7,0000.0,0010.61,0006.41,0005.78
2024-04-20 08:32:00,SystemResetWarning,0836.2,5.01,000.00,019.1,018.6,000.0,027.6,020.9,022.7,0000.0,0010.60,0006.41,0005.80
2024-04-20 08:33:00,SystemResetWarning,0836.2,5.00,000.00,019.1,018.6,000.0,027.6,020.9,022.7,0000.0,0010.46,0006.37,0005.81
2024-04-20 08:34:00,SystemResetWarning,0836.2,5.00,000.00,019.1,018.6,000.0,027.6,020.9,022.7,0000.0,0009.50,0006.34,0005.81
2024-04-20 08:35:00,SystemResetWarning,0836.1,5.01,000.00,019.1,018.6,000.0,027.6,020.9,022.7,0000.0,0009.38,0006.33,0005.80
2024-04-20 08:36:00,SystemResetWarning,0836.2,5.00,000.00,019.1,018.6,000.0,027.6,020.9,022.7,0000.0,0009.35,0006.32,0005.79
2024-04-20 08:37:00,SystemResetWarning,0836.2,5.00,000.00,019.1,018.6,000.0,027.6,020.9,022.7,0000.0,0009.42,0006.31,0005.79
2024-04-20 08:38:00,SystemResetWarning,0836.1,5.01,000.00,019.1,018.6,000.0,027.6,020.9,022.6,0000.0,0009.43,0006.30,0005.78
2024-04-20 08:39:00,SystemResetWarning,0836.1,5.00,000.00,019.1,018.6,000.0,027.6,020.8,022.6,0000.0,0009.44,0006.27,0005.76
2024-04-20 08:40:00,SystemResetWarning,0836.1,4.99,000.00,019.1,018.6,000.0,027.6,020.8,022.7,0000.0,0009.57,0006.22,0005.73
2024-04-20 08:41:00,SystemResetWarning,0836.0,5.00,000.00,019.1,018.6,000.0,027.6,020.9,022.7,0000.0,0010.00,0006.20,0005.71
2024-04-20 08:42:00,SystemResetWarning,0836.0,5.00,000.00,019.1,018.6,000.0,027.6,020.9,022.7,0000.0,0010.12,0006.18,0005.69
2024-04-20 08:43:00,SystemResetWarning,0836.0,5.00,000.00,019.1,018.6,000.0,027.6,020.8,022.7,0000.0,0009.92,0006.13,0005.67
2024-04-20 08:44:00,SystemResetWarning,0836.1,5.00,000.00,019.1,018.6,000.0,027.6,020.8,022.7,0000.0,0010.21,0006.10,0005.65
2024-04-20 08:45:00,SystemResetWarning,0836.1,5.00,000.00,019.1,018.6,000.0,027.6,020.9,023.2,0000.0,0010.18,0006.07,0005.63
2024-04-20 08:46:00,SystemResetWarning,0836.1,5.00,000.00,019.1,018.6,000.0,027.6,020.9,023.9,0000.0,0010.18,0006.06,0005.62
2024-04-20 08:47:00,SystemResetWarning,0836.1,5.00,000.00,019.1,018.6,000.0,027.6,020.9,023.2,0000.0,0010.16,0006.05,0005.60
2024-04-20 08:48:00,SystemResetWarning,0836.0,5.01,000.00,019.1,018.5,000.0,027.6,020.9,022.9,0000.0,0010.05,0006.06,0005.60
2024-04-20 08:49:00,SystemResetWarning,0835.9,5.01,000.00,019.1,018.5,000.0,027.6,020.9,022.9,0001.5,0009.96,0006.03,0005.60
2024-04-20 08:50:00,SystemResetWarning,0835.9,5.00,000.00,019.1,018.6,000.0,027.6,020.9,022.9,0002.0,0009.88,0006.04,0005.61
2024-04-20 08:51:00,SystemResetWarning,0836.0,5.00,000.00,019.1,018.6,000.0,027.6,020.9,022.9,0001.6,0009.71,0006.05,0005.61
2024-04-20 08:52:00,SystemResetWarning,0836.1,4.99,000.00,019.1,018.5,000.0,027.6,020.9,022.9,0001.7,0009.39,0006.04,0005.61
2024-04-20 08:53:00,SystemResetWarning,0836.1,5.00,000.00,019.1,018.5,000.0,027.6,020.9,022.9,0001.7,0009.02,0006.04,0005.61
2024-04-20 08:54:00,SystemResetWarning,0836.1,5.01,000.00,019.1,018.5,000.0,027.6,020.9,022.8,0001.7,0009.12,0006.06,0005.61
2024-04-20 08:55:00,SystemResetWarning,0836.0,5.01,000.00,019.1,018.5,000.0,027.6,020.8,022.8,0001.6,0008.94,0006.09,0005.61
2024-04-20 08:56:00,SystemResetWarning,0836.1,5.00,000.00,019.1,018.5,000.0,027.6,020.8,022.8,0001.7,0008.93,0006.11,0005.60
2024-04-20 08:57:00,SystemResetWarning,0835.9,4.99,000.00,019.1,018.5,000.0,027.6,020.8,022.8,0002.3,0009.07,0006.13,0005.60
2024-04-20 08:58:00,SystemResetWarning,0835.9,4.99,000.00,019.1,018.5,000.0,027.6,020.8,022.8,0002.2,0009.05,0006.11,0005.59
2024-04-20 08:59:00,SystemResetWarning,0835.9,5.02,000.00,019.1,018.5,000.0,027.6,020.8,022.8,0000.5,0009.00,0006.10,0005.60
